YN7ZGH-13 Weather Reports


time (UTC)temp
C
wind
direction
speed
KPH
gust
KPH
rain 1hr
cm
rain 24hr
cm
rain mn
cm
humidity
%
barometer
mb
20260502233241 34 130 25.7 0.0 0.00 0.00 0.00 46 1008.0
20260502232240 35 110 20.9 0.0 0.00 0.00 0.00 42 1007.0
20260502231240 35 110 20.9 0.0 0.00 0.00 0.00 42 1007.0
20260502230239 35 110 20.9 0.0 0.00 0.00 0.00 42 1007.0
20260502225239 35 110 20.9 0.0 0.00 0.00 0.00 42 1007.0
20260502224239 35 110 20.9 0.0 0.00 0.00 0.00 42 1007.0
20260502223238 36 120 24.1 0.0 0.00 0.00 0.00 43 1007.0
20260502222237 36 120 24.1 0.0 0.00 0.00 0.00 43 1007.0
20260502221237 36 120 24.1 0.0 0.00 0.00 0.00 43 1007.0
20260502213206 35 120 25.7 0.0 0.00 0.00 0.00 43 1006.0
20260502212206 35 120 25.7 0.0 0.00 0.00 0.00 43 1007.0
20260502211205 35 120 17.7 0.0 0.00 0.00 0.00 43 1007.0
20260502203135 35 120 17.7 0.0 0.00 0.00 0.00 43 1007.0
20260502202134 35 120 17.7 0.0 0.00 0.00 0.00 43 1007.0
20260502201134 35 90 12.9 0.0 0.00 0.00 0.00 43 1007.0
20260502200133 35 90 12.9 0.0 0.00 0.00 0.00 43 1007.0
20260502195133 35 90 12.9 0.0 0.00 0.00 0.00 44 1007.0
20260502194132 35 90 12.9 0.0 0.00 0.00 0.00 46 1007.0
20260502185649 34 90 12.9 0.0 0.00 0.00 0.00 48 1008.0
20260502184649 34 90 12.9 0.0 0.00 0.00 0.00 50 1009.0
20260502183649 33 90 12.9 0.0 0.00 0.00 0.00 53 1009.0
20260502182648 33 90 12.9 0.0 0.00 0.00 0.00 53 1010.0
20260502181648 33 90 12.9 0.0 0.00 0.00 0.00 53 1010.0
20260502180647 33 90 12.9 0.0 0.00 0.00 0.00 53 1010.0
20260502163633 31 90 12.9 0.0 0.00 0.00 0.00 63 1011.0
20260502162633 30 90 12.9 0.0 0.00 0.00 0.00 69 1012.0
20260502161632 30 90 12.9 0.0 0.00 0.00 0.00 69 1012.0
20260502160632 30 90 12.9 0.0 0.00 0.00 0.00 69 1012.0
20260502151600 28 90 14.5 0.0 0.00 0.00 0.00 72 1012.0
20260502150600 28 90 14.5 0.0 0.00 0.00 0.00 72 1012.0
20260502130554 26 120 6.4 0.0 0.00 0.00 0.00 85 1011.0
20260502123553 26 120 6.4 0.0 0.00 0.00 0.00 85 1011.0
20260502122552 26 120 6.4 0.0 0.00 0.00 0.00 86 1011.0
20260502121552 26 120 6.4 0.0 0.00 0.00 0.00 87 1011.0
20260502120552 26 180 6.4 0.0 0.00 0.00 0.00 87 1011.0
20260502115552 26 180 6.4 0.0 0.00 0.00 0.00 87 1011.0
20260502114551 26 180 6.4 0.0 0.00 0.00 0.00 87 1010.0
20260502113550 26 180 6.4 0.0 0.00 0.00 0.00 87 1010.0
20260502112550 26 180 6.4 0.0 0.00 0.00 0.00 87 1010.0
20260502111549 26 180 6.4 0.0 0.00 0.00 0.00 87 1010.0
20260502110549 26 180 6.4 0.0 0.00 0.00 0.00 87 1010.0
20260502105548 26 180 6.4 0.0 0.00 0.00 0.00 87 1010.0
20260502104548 26 180 6.4 0.0 0.00 0.00 0.00 87 1010.0
20260502103547 26 180 6.4 0.0 0.00 0.00 0.00 87 1010.0
20260502102547 26 80 6.4 0.0 0.00 0.00 0.00 87 1010.0
20260502101547 26 80 6.4 0.0 0.00 0.00 0.00 87 1010.0
20260502100546 26 80 6.4 0.0 0.00 0.00 0.00 87 1010.0
20260502090543 26 90 6.4 0.0 0.00 0.00 0.00 86 1010.0
20260502070537 27 120 14.5 0.0 0.00 0.00 0.00 81 1010.0
20260502065537 27 120 14.5 0.0 0.00 0.00 0.00 81 1010.0
20260502064536 27 120 14.5 0.0 0.00 0.00 0.00 80 1010.0
20260502063536 27 120 14.5 0.0 0.00 0.00 0.00 79 1010.0
20260502062535 27 130 6.4 0.0 0.00 0.00 0.00 79 1010.0
20260502061535 27 130 6.4 0.0 0.00 0.00 0.00 79 1010.0
20260502060534 27 130 6.4 0.0 0.00 0.00 0.00 79 1010.0
20260502055534 27 130 6.4 0.0 0.00 0.00 0.00 79 1010.0
20260502054534 27 130 6.4 0.0 0.00 0.00 0.00 79 1010.0
20260502053533 30 140 12.9 0.0 0.00 0.00 0.00 75 1010.0
20260502052533 29 140 12.9 0.0 0.00 0.00 0.00 75 1011.0
20260502051532 28 140 12.9 0.0 0.00 0.00 0.00 75 1010.0
20260502050531 28 140 14.5 0.0 0.00 0.00 0.00 75 1010.0
20260502045531 28 140 14.5 0.0 0.00 0.00 0.00 75 1010.0
20260502044531 28 140 14.5 0.0 0.00 0.00 0.00 75 1010.0
20260502043530 28 140 14.5 0.0 0.00 0.00 0.00 75 1010.0
20260502042530 28 140 14.5 0.0 0.00 0.00 0.00 74 1010.0
20260502041529 28 140 14.5 0.0 0.00 0.00 0.00 72 1010.0
20260502033459 28 140 14.5 0.0 0.00 0.00 0.00 72 1010.0
20260502032458 28 140 14.5 0.0 0.00 0.00 0.00 72 1009.0
20260502024428 28 140 6.4 0.0 0.00 0.00 0.00 72 1009.0
20260502013327 30 140 17.7 0.0 0.00 0.00 0.00 69 1008.0
20260502012327 30 140 17.7 0.0 0.00 0.00 0.00 69 1008.0
20260502011326 30 140 17.7 0.0 0.00 0.00 0.00 69 1007.0
20260502010326 29 140 17.7 0.0 0.00 0.00 0.00 69 1007.0
20260502005325 29 140 17.7 0.0 0.00 0.00 0.00 69 1007.0
20260502004325 31 140 17.7 0.0 0.00 0.00 0.00 66 1007.0
20260502003324 31 140 17.7 0.0 0.00 0.00 0.00 66 1007.0
20260502002324 31 140 17.7 0.0 0.00 0.00 0.00 66 1007.0
20260502001324 31 100 17.7 0.0 0.00 0.00 0.00 66 1006.0
20260502000324 30 100 17.7 0.0 0.00 0.00 0.00 66 1006.0
20260501235322 30 100 17.7 0.0 0.00 0.00 0.00 66 1006.0
20260501234322 30 100 17.7 0.0 0.00 0.00 0.00 66 1006.0